Location: Sungai Bunut
(2.6333°N, 113.7333°E)
Time: 07:53:01
(UTC+00:00)

Courier 1B - Pass Details

Date: 07 December 2023
Orbit: 962 x 1209 km, 28.3° (Epoch: 03 March)

Event Time Altitude Azimuth Distance (km) Brightness Sun altitude
Rises 11:41:49 0° 250° (WSW) 3,787 12.2 -20.7°
Reaches altitude 10° 11:47:30 10° 213° (SSW) 2,910 10.7 -22.0°
Maximum altitude 11:48:56 11° 201° (SSW) 2,882 10.5 -22.3°
Drops below altitude 10° 11:50:24 10° 189° (S) 2,949 10.4 -22.7°
Sets 11:56:23 0° 153° (SSE) 3,985 10.7 -24.0°
